User: anonymous   Login
Location: Unspecified
(33.2407°S, 0.0000°E)
Time: 22:13:28
(UTC+00:00)
Language:

Hubble Space Telescope - Orbit

View from above orbital plane
View from above orbital plane
View from above satellite
View from above satellite

Ground track
Ground track

The orbit data is extracted from the following two-line orbital elements,

1 20580U 90037B   19175.24098863  .00000302  00000-0  74086-5 0  9992
2 20580  28.4680 175.2428 0002710 178.8377 277.5181 15.09237945401725
Epoch (UTC): 24 June 2019 05:47:01
Eccentricity: 0.0002710
inclination: 28.4680°
perigee height: 536 km
apogee height: 540 km
right ascension of ascending node: 175.2428°
argument of perigee: 178.8377°
revolutions per day: 15.09237945
mean anomaly at epoch: 277.5181°
orbit number at epoch: 40172

The dashed part of the orbit path shows where the satellite is in the earth's shadow,  

DLR